Погода в Сумах

Украина / Сумская область     50°54′43″N   34°48′09″E
темп.,
°C
ветер,
м/с
пор.,
м/с
влажн.,
%
обл.,
%
осадки,
мм/ч
давл.,
гПа
погр.,
м
7 марта, вс
вс723:00−7з379371 0.1 1022219
02:00−8з379147 0.1 1022207
05:00−8юз512830 0.0 1020340
08:00−5юз7167644 0.0 1017574
11:00−2зюз91577100 0.0 1014893
14:00−1зюз101785100 0.1 10111362
17:000зюз91685100 0.2 10081135
20:00−1зюз8168696 0.2 1008966
8 марта, пн
пн823:00−1зюз71491100 0.1 1007801
02:00−1зюз71394100 0.3 1007860
05:00−2зюз71394100 0.4 1005783
08:00−2зсз61088100 0.9 1007981
11:00−2зсз61076100 0.2 10081279
14:00−2зсз687496 0.4 10091173
17:00−3сз498294 0.3 1011574
20:00−7сз398149 0.3 1014352
9 марта, вт
вт923:00−8зсз36850 0.0 1015185
02:00−8зсз35860 0.0 1015149
05:00−9зсз359055 0.0 1016185
08:00−8сз349071 0.0 1018254
11:00−6сз348087 0.1 1018605
14:00−5сз457994 0.1 1020860
17:00−7ссз358498 0.1 1020507
20:00−9ссз388866 0.1 1023301
10 марта, ср
ср1023:00−10ссз23901 0.0 1024123
02:00−11сз22911 0.0 102572
05:00−11сз12905 0.0 102561
08:00−10з228326 0.0 1026162
11:00−6з347460 0.0 1025451
14:00−4зюз357437 0.0 1024630
17:00−5зюз378379 0.0 1023406
20:00−7зюз369072 0.0 1024194
11 марта, чт
чт1123:00−8зюз368882 0.0 1024178
02:00−8зюз368682 0.0 1025173
05:00−8зюз368282 0.0 1024178
08:00−7зюз367789 0.0 1025219
11:00−3юз367346 0.0 1024352
14:00−1юз576654 0.0 1024770
17:00−3юз377899 0.0 1024338
20:00−3ю3107699 0.0 1023321